Погода в Джалалабаде

Погода в Джалалабаде : погода сейчас, прогноз погоды и архив. Всё, что Вы хотите узнать о погоде в Джалалабаде!

Поиск расширенной информации на нашем сайте:

Другие новости

Новости СМИ2

Главная страница сайта

Новости сайта

03.07.2017

Напоминаем, что на нашем специализированном сайте Метеоцентр.Азия вы можете получить высокодетализированные автоматические прогнозы погоды по пунктам России, СНГ и мира в авиационном формате (включающие направление и скорость ветра, видимость, явления погоды, количество и форму облачности, нижнюю и верхнюю границу облачности).

Рекомендуем: Смотрите описание шкода на сайте.

Погода в Джалалабаде - сегодня

Время (UTC), дата Ветер
(°,м/с) 
Видим.   Явления Облачность Т
(°С)
Тd
(°С)
f(%) Тe
(°С)
Pmin
(гПа)
dP
(гПа)
Po
(мм)
O2
(г/м3)
Тmin Tmax R s Состояние
почвы
21 19.11.17 020 (С) н/о    ясно 
+1 -1.9 81 +2  1029  -0.8  702  281           
00 20.11.17 020 (С) н/о    ясно 
+0.1 -3.6 76 -1  1028.8  -0.5  703  283           
03 20.11.17 020 (С) 20000 м    ясно 
+0.4 -3.2 77 1029.2  0.5             
06 20.11.17 170 (Ю) 20000 м    ясно 
+10.4 +3.2 61 +12  1025.8  702  271  +0.1         
09 20.11.17 280 (З) 20000 м    ясно 
+12.7 +1.9 48 +14  1026  0.8  702  269           
12 20.11.17 190 (Ю) 20000 м    ясно 
+9 +1.5 59 +10  1027.2  703  274           
15 20.11.17 070 (В) н/о    ясно 
+4.5 +0 73 +4  1029.1  0.4  702  277    +13.2       
18 20.11.17 020 (С) н/о    ясно 
+2 -1.9 75 +1  1027.5  0.7  701  280    +13.2       
21 20.11.17 010 (С) н/о    ясно 
+0.2 -0.7 94 -1  1028.5  701  281           
00 21.11.17 010 (С) н/о    ясно 
-1 -1 100 -2  1028.2  -0.5  704  285           
03 21.11.17 030 (СВ) 20000 м    ясно 
+0.8 -5.7 62 +1  1029.3  0.2             
06 21.11.17 170 (Ю) 20000 м    ясно 
+10.2 -1.2 45 +11  1025.6  -0.5  701  272  -1         
09 21.11.17 180 (Ю) 20000 м    ясно 
+13.6 -5.7 26 +15  1022.1  -2.2  700  268           
12 21.11.17 180 (Ю) 20000 м    ясно 
+9.4 -2.2 44 +10  1023.4  701  273           
15 21.11.17 050 (СВ) н/о    ясно 
+4 -1.5 67 +5  1025.5  0.2  700  277    +14.3       
18 21.11.17 020 (С) н/о    ясно 
+2.8 -4.1 60 +2  1025.4  -0.5  700  279    +14.3       
21 21.11.17 010 (С) н/о    ясно 
+2.4 -6.7 51 +3  1024.7  -0.8  699  279           
00 22.11.17 010 (С) н/о    ясно 
+2.6 -7.7 47 +2  1024.1  -0.6  699  280           
03 22.11.17 020 (С) 20000 м    ясно 
+2.8 -8.3 44 +2  1024.8  0.8  699  279           
06 22.11.17 180 (Ю) 20000 м    ясно 
+12.8 -3 33 +14  1020.7  -0.6  699  269  +2.6         
09 22.11.17 180 (Ю) 20000 м    ясно 
+14 -5.4 26 +15  1017.9  -2.4  697  267           
12 22.11.17 170 (Ю) 20000 м    ясно 
+10.6 -3 38 +12  1018.1  -0.7  697  271           
15 22.11.17 230 (ЮЗ) н/о    ясно 
+4.2 -2.3 63 +5  1020.5  0.3  697  276    +15.5       
18 22.11.17 010 (С) н/о    ясно 
+2.7 -3.2 65 +3  1020.3  -0.7  696  277    +15.5       
21 22.11.17 040 (СВ) н/о    ясно 
+0.2 -3.3 77 +1  1020.4  -0.6  695  279           
Время (UTC), дата Ветер
(°,м/с) 
Видим.   Явления Облачность Т
(°С)
Тd
(°С)
f(%) Тe
(°С)
Pmin
(гПа)
dP
(гПа)
Po
(мм)
O2
(г/м3)
Тmin Tmax R s Состояние
почвы

Для получения пояснительной информации подведите курсор к названию столбца.

ПОГОДА в Джалалабаде - архив

Всё, что Вы хотите узнать о погоде в Джалалабаде - удобно и подробно!

Выберите нужную дату (начиная с 1 января 2015* года) и нажмите кнопку "Найти".
Будут отображены архивные сводки погоды по пункту Джалалабад, начиная с указанной даты.


Отображать данные в формате CSV (для использования в таблицах Excel)


Внимание! Наш архив погоды предназначен исключительно для личного некоммерческого использования в познавательных целях. Если Вам необходимы официальные справки о состоянии погоды (для производственных, юридических, коммерческих и т.п. целей), обращайтесь в органы Росгидромета.

*Примечание: данная дата относится к архиву по метеостанциям СССР (Россия, СНГ, Балтия).
Архив по метеостанциям Зарубежной Европы и Азии (кроме Китая) хранится 10 дней, по другим регионам земного шара (Китай, Африка, Америка, Австралия, Океания) - 1 день.

Джалалабад - район местоположения метеостанции


Название, широта, долгота, высота метеостанции:
Джалалабад 40.9°ш. 72.9°д. 765 м над ур. моря [Кыргызстан]

Дополнительная информация

В oтличие oт бoльшинства пoгoдных сайтoв мы публикуем пoдрoбную метеoинфoрмацию в детальнoм прoфессиoнальнoм фoрмате.

Характеристики температуры и влажнoсти вoздуха измеряются на высoте 2 м в тени вдали oт зданий и деревьев.
Скoрoсть ветра измеряется на высoте 10 м (на урoвне рoста челoвека скoрoсть ветра ниже в 1.5-2 раза). Если метеoстанция нахoдится в гoрoде или в лесу, тo скoрoсть ветра занижена на 2-4 м/с пo сравнению с oткрытым местoм. Скoрoсть ветра над акватoриями крупных рек и oзёр, а также на вершинах хoлмoв на 2-5 м/с выше, чем в oбычных услoвиях.
Атмoсфернoе давление в разных тoчках местнoсти мoжет значительнo oтличаться oт давления на метеoстанции, в зависимoсти oт услoвий рельефа (при пoдъёме на 10 м давление пoнижается примернo на 1 мм рт.ст.).